Zurück zum Katalog

STARLINK-5862

AktivKommunikationVLEO
NORAD 55920·PAYLOAD·🇺🇸 United States

Gestartet Mar 17, 2023 von Vandenberg Space Force Base

Loading…

Nächste Überflüge (nächste 24 Stunden)

TLE

AktuellSource: CelesTrak SupGP

Epoche: Sep 14, 2026, 22:28 UTC

1 55920C 23037G   26257.93659722  .00310990  00000+0  25245-1 0  2578
2 55920  70.0006 167.4918 0003090 270.1509  58.6908 14.99401929    13

Verfolge STARLINK-5862 in Echtzeit mit AllMySat

Download on the App Store